EUTELSAT HOTBIRD 13F

Last updated on Sun Apr 12 2026 00:02:56 GMT+0000 (Coordinated Universal Time)

1 54048U 22134A 26101.30933616 .00000089 00000+0 00000+0 0 9999 2 54048 0.0558 285.7368 0001952 80.4052 317.7565 1.00272292 12705
UTC large
Height (km)
Speed (km/s)
/
Latitude / Longitude
Inclination (degrees)
Orbital Period (minutes)
Azimuth
Elevation
Range (km)
Doppler Factor

Next 0 passes for location: London (51.5072 / 0.1276)

Sorry there are no passes over London.
EUTELSAT HOTBIRD 13F